1503478801.26,62618,15.5,73790.5,3.83,-3.71,-5.19,0,*76
1503478802.44,62619,15.5,73794.0,3.85,-3.19,-4.17,0,*70
1503478803.66,62620,15.5,73792.8,3.85,-3.75,-4.77,0,*76
1503478804.9,62621,15.5,73792.5,3.83,-3.63,-4.49,0,*7B
1503478806.09,62622,15.5,73790.8,3.85,-3.23,-4.53,0,*71
1503478807.34,62623,15.5,73790.8,3.85,-4.01,-4.89,0,*70
1503478808.55,62624,15.5,73790.3,3.85,-4.05,-4.01,0,*73
1503478809.74,62625,15.5,73786.8,3.85,-2.83,-2.31,0,*7F
1503478810.97,62626,15.5,73788.5,3.87,-1.29,-1.09,0,*75
1503478812.15,62627,15.5,73788.5,3.93,-0.19,-0.29,0,*70
1503478813.35,62628,15.5,73784.3,3.95,-0.57,-0.77,0,*78
1503478814.57,62629,15.5,73782.8,3.97,-1.59,-1.71,0,*73
1503478815.79,62630,15.5,73782.8,3.99,-1.09,-1.29,0,*7D
1503478816.98,62631,15.5,73792.0,3.99,-0.81,-1.29,0,*4D
1503478818.22,62632,15.5,73790.3,4.03,-1.05,-1.99,0,*7C
1503478819.41,62633,15.5,73782.0,4.03,-3.03,-3.95,0,*77
1503478820.64,62634,15.5,73786.5,4.05,-4.93,-6.09,0,*78
1503478821.88,62635,15.5,73788.5,4.07,-7.31,-7.69,0,*77
1503478823.13,62636,15.5,73788.8,4.05,-8.45,-10.41,0,*46
1503478824.33,62637,15.5,73790.3,4.07,-9.97,-12.29,0,*47
1503478825.53,62638,15.5,73788.8,4.07,-10.23,-14.15,0,*76
1503478826.76,62639,15.5,73792.8,4.09,-9.71,-13.55,0,*45
1503478827.98,62640,15.5,73796.3,4.17,-9.19,-14.61,0,*4A
1503478829.22,62641,15.5,73798.8,4.17,-9.89,-14.75,0,*47
1503478830.44,62642,15.5,73790.3,4.17,-10.23,-13.73,0,*7D
1503478831.66,62643,15.5,73792.0,4.21,-7.11,-9.93,0,*7B
1503478832.88,62644,15.5,73790.5,4.23,-5.03,-9.71,0,*73
1503478834.1,62645,15.5,73796.0,4.25,-5.47,-10.57,0,*48
1503478835.34,62646,15.5,73798.3,4.27,-6.63,-11.55,0,*4F
1503478836.58,62647,15.5,73792.5,4.31,-8.03,-10.89,0,*41
1503478837.8,62648,15.5,73790.8,4.31,-8.63,-8.75,0,*72
1503478839.02,62649,15.5,73790.3,4.31,-6.31,-5.51,0,*71
1503478840.24,62650,15.5,73792.3,4.33,-3.43,-2.23,0,*79
1503478841.45,62651,15.5,73790.3,4.33,-0.93,-0.57,0,*77
1503478842.69,62652,15.5,73792.8,4.39,0.55,0.71,0,*70
1503478843.92,62653,15.5,73790.5,4.43,0.67,0.67,0,*7A
1503478845.1,62654,15.5,73792.8,4.45,-0.57,-0.73,0,*7D
1503478846.33,62655,15.5,73792.0,4.47,-0.23,-0.33,0,*79
1503478847.54,62656,15.5,73794.0,4.45,0.37,0.25,0,*7A
1503478848.79,62657,15.5,73798.8,4.47,0.79,0.63,0,*71
1503478850.0,62658,15.5,73794.8,4.47,-0.45,-0.77,0,*74
1503478851.21,62659,15.5,73794.0,4.47,-0.11,-0.33,0,*74
1503478852.41,62660,15.5,73792.5,4.47,-0.03,-0.57,0,*4F
1503478853.61,62661,15.5,73792.8,4.49,-0.29,-0.97,0,*74
1503478854.84,62662,15.5,73792.8,4.51,-0.85,-1.59,0,*4B
1503478856.06,62663,15.5,73794.8,4.49,-1.05,-1.55,0,*76
1503478857.26,62664,15.5,73794.0,4.51,-0.19,-0.65,0,*76
1503478858.46,62665,15.5,73794.8,4.51,-0.15,-0.53,0,*7E
1503478859.64,62666,15.5,73794.5,4.49,-0.07,-0.45,0,*40
1503478860.86,62667,15.5,73796.0,4.51,-0.53,-0.89,0,*79
1503478862.09,62668,15.5,73792.8,4.51,-0.27,-0.53,0,*72
1503478863.29,62669,15.5,73798.3,4.51,-0.37,-0.65,0,*77
1503478864.49,62670,15.5,73796.5,4.51,-0.15,-0.49,0,*71
1503478865.7,62671,15.5,73796.5,4.51,-0.07,-0.41,0,*4B
1503478866.9,62672,15.5,73794.0,4.51,-0.19,-0.53,0,*74
1503478868.11,62673,15.5,73792.0,4.51,-0.15,-0.49,0,*72
1503478869.32,62674,15.5,73798.8,4.53,-0.53,-1.05,0,*4C
1503478870.56,62675,15.5,73796.5,4.53,-0.89,-1.35,0,*49
1503478871.77,62676,15.5,73798.3,4.53,-0.85,-1.17,0,*46
1503478872.97,62677,15.5,73798.8,4.51,-0.41,-0.53,0,*7C
1503478874.21,62678,15.5,73798.0,4.51,-0.27,-0.41,0,*70
1503478875.41,62679,15.5,73798.3,4.51,-0.41,-0.65,0,*77
1503478876.61,62680,15.5,73800.5,4.51,0.09,-0.19,0,*6B
1503478877.8,62681,15.5,73800.8,4.51,0.09,-0.07,0,*55
1503478879.03,62682,15.5,73806.3,4.51,0.37,0.13,0,*73
1503478880.22,62683,15.5,73804.8,4.51,0.09,-0.29,0,*6B
1503478881.43,62684,15.5,73800.0,4.51,-1.67,-2.39,0,*7B
1503478882.64,62685,15.5,73794.3,4.49,-0.77,-1.09,0,*43
1503478883.82,62686,15.5,73798.8,4.49,-0.41,-0.65,0,*7E
1503478885.02,62687,15.5,73796.8,4.49,-1.33,-1.71,0,*7F
1503478886.23,62688,15.5,73798.0,4.45,-1.09,-1.25,0,*74
1503478887.44,62689,15.5,73796.8,4.47,-0.69,-0.81,0,*7F
1503478888.64,62690,15.5,73796.8,4.47,-0.19,-0.29,0,*72
1503478889.82,62691,15.5,73798.5,4.45,-0.07,-0.15,0,*41
1503478891.05,62692,15.5,73798.8,4.47,0.17,-0.11,0,*58
1503478892.23,62693,15.5,73798.0,4.45,-0.45,-0.69,0,*7E
1503478893.44,62694,15.5,73792.3,4.45,-0.73,-1.01,0,*43
1503478894.61,62695,15.5,73792.3,4.41,-0.61,-0.81,0,*7C
1503478895.85,62696,15.5,73790.5,4.43,0.25,0.17,0,*72
1503478897.03,62697,15.5,73790.3,4.43,0.05,0.05,0,*72
1503478898.27,62698,15.5,73788.8,4.43,0.25,0.13,0,*78
1503478899.51,62699,15.5,73790.8,4.43,0.59,0.47,0,*73
1503478900.74,62700,15.5,73794.5,4.43,0.29,0.13,0,*74
1503478901.93,62701,15.5,73794.0,4.45,0.25,-0.07,0,*67
1503478903.11,62702,15.5,73788.5,4.45,-0.15,-0.45,0,*7C
1503478904.36,62703,15.5,73782.3,4.41,-1.43,-1.99,0,*7B
1503478905.57,62704,15.5,73780.0,4.41,-2.27,-2.75,0,*7C
1503478906.79,62705,15.5,73790.5,4.35,-1.75,-2.31,0,*7A
1503478908.04,62706,15.5,73798.3,4.35,-1.09,-1.95,0,*7F
1503478909.26,62707,15.5,73800.0,4.33,-1.43,-2.83,0,*72
1503478910.48,62708,15.5,73796.3,4.31,-3.35,-5.39,0,*7A
1503478911.7,62709,15.5,73796.5,4.27,-4.09,-5.61,0,*79
1503478912.88,62710,15.5,73796.5,4.27,-3.31,-3.95,0,*70
1503478914.07,62711,15.5,73796.8,4.27,-3.27,-4.29,0,*76
1503478915.29,62712,15.5,73800.5,4.27,-3.95,-4.93,0,*7D
1503478916.48,62713,15.5,73796.8,4.23,-4.33,-4.65,0,*7A
1503478917.74,62714,15.5,73798.5,4.25,-3.43,-3.59,0,*73
1503478919.0,62715,15.5,73798.5,4.25,-2.51,-2.55,0,*7D
1503478920.24,62716,15.5,73796.8,4.25,-1.63,-1.87,0,*70
1503478921.44,62717,15.5,73800.5,4.25,-2.43,-2.79,0,*72
1503478922.67,62718,15.5,73802.5,4.25,-0.69,-1.05,0,*4F
1503478923.88,62719,15.5,73802.5,4.25,-0.15,-0.77,0,*71
1503478925.09,62720,15.5,73802.3,4.29,-0.11,-1.13,0,*40
1503478926.27,62721,15.5,73802.3,4.29,-0.49,-1.51,0,*4A
1503478927.46,62722,15.5,73804.5,4.29,-0.15,-1.29,0,*4F
1503478928.65,62723,15.5,73802.3,4.29,-0.49,-1.75,0,*4E
1503478929.83,62724,15.5,73802.3,4.29,-0.37,-1.59,0,*4E
1503478931.02,62725,15.5,73796.0,4.29,-0.37,-1.17,0,*45
1503478932.23,62726,15.5,73798.8,4.31,-0.37,-0.73,0,*7C
1503478933.47,62727,15.5,73792.3,4.31,-0.19,-0.27,0,*70
1503478934.69,62728,15.5,73790.5,4.35,-0.15,-0.23,0,*73
1503478935.92,62729,15.5,73790.5,4.35,-0.77,-0.89,0,*76
1503478937.12,62730,15.5,73788.5,4.35,-0.07,-0.15,0,*4C
1503478938.31,62731,15.5,73790.8,4.35,0.05,-0.07,0,*51
1503478939.55,62732,15.5,73788.8,4.39,0.21,0.21,0,*71
1503478940.78,62733,15.5,73788.5,4.35,0.41,0.33,0,*79
1503478941.99,62734,15.5,73790.3,4.35,-0.33,-0.45,0,*7A
1503478943.19,62735,15.5,73784.3,4.35,-0.07,-0.15,0,*49
1503478944.38,62736,15.5,73784.0,4.35,0.09,0.05,0,*75
1503478945.56,62737,15.5,73788.5,4.39,0.09,0.05,0,*78
1503478946.8,62738,15.5,73788.0,4.39,0.17,0.17,0,*7B
1503478948.03,62739,15.5,73790.0,4.35,-0.23,-0.41,0,*72
1503478949.25,62740,15.5,73790.8,4.39,-0.15,-0.23,0,*71
1503478950.47,62741,15.5,73790.8,4.39,-1.33,-1.51,0,*71
1503478951.71,62742,15.5,73790.8,4.35,-1.33,-1.39,0,*70
1503478952.93,62743,15.5,73794.5,4.33,-1.09,-1.25,0,*73
1503478954.17,62744,15.5,73792.0,4.31,-1.05,-1.25,0,*7A
1503478955.41,62745,15.5,73794.3,4.33,-1.13,-1.43,0,*7E
1503478956.66,62746,15.5,73792.3,4.31,-1.21,-1.43,0,*7E
1503478957.86,62747,15.5,73792.8,4.29,-1.25,-1.51,0,*71
1503478959.07,62748,15.5,73792.8,4.27,-1.05,-1.17,0,*70
1503478960.28,62749,15.5,73792.0,4.29,-0.73,-0.97,0,*76
1503478961.47,62750,15.5,73796.3,4.27,-0.69,-0.89,0,*74
1503478962.68,62751,15.5,73794.3,4.27,-0.65,-1.01,0,*48
1503478963.89,62752,15.5,73792.3,4.25,-1.33,-1.63,0,*7F
1503478965.16,62753,15.5,73796.3,4.25,-1.05,-1.39,0,*74
1503478966.4,62754,15.5,73796.8,4.25,-1.17,-1.43,0,*7D
1503478967.64,62755,15.5,73796.0,4.23,-1.05,-1.35,0,*78
1503478968.86,62756,15.5,73794.8,4.23,-1.99,-2.35,0,*7D
1503478970.07,62757,15.5,73796.0,4.23,-1.59,-2.07,0,*71
1503478971.29,62758,15.5,73796.8,4.21,-2.43,-2.99,0,*73
1503478972.52,62759,15.5,73798.0,4.17,-2.59,-3.35,0,*7B
1503478973.78,62760,15.5,73802.0,4.13,-2.63,-3.71,0,*7C
1503478975.04,62761,15.5,73796.8,4.13,-2.67,-3.71,0,*79
1503478976.25,62762,15.5,73798.3,4.11,-2.55,-2.91,0,*76
1503478977.49,62763,15.56,73802.0,4.11,-2.07,-1.91,0,*73
1503478978.72,62764,15.5,73796.8,4.11,-1.09,-0.85,0,*4D
1503478979.9,62765,15.5,73792.3,4.11,0.01,0.13,0,*4A
1503478981.15,62766,15.5,73794.3,4.17,0.87,0.95,0,*7F
1503478982.38,62767,15.5,73788.8,4.17,0.13,0.13,0,*7D
1503478983.63,62768,15.5,73784.8,4.21,0.51,0.51,0,*77
1503478984.86,62769,15.5,73782.0,4.21,0.29,0.13,0,*7F
1503478986.07,62770,15.5,73790.0,4.23,-0.97,-1.21,0,*40
1503478987.27,62771,15.5,73792.3,4.21,0.05,-0.07,0,*50
1503478988.48,62772,15.5,73798.0,4.23,0.51,0.41,0,*7F
1503478989.71,62773,15.5,73790.0,4.25,0.29,0.17,0,*74
1503478990.9,62774,15.5,73784.8,4.29,0.33,0.01,0,*43
1503478992.14,62775,15.5,73788.3,4.27,-1.05,-1.43,0,*7F
1503478993.35,62776,15.5,73786.0,4.27,-1.13,-1.79,0,*72
1503478994.59,62777,15.5,73786.5,4.29,-0.97,-1.91,0,*46
1503478995.77,62778,15.56,73794.3,4.27,-1.21,-2.79,0,*7E
1503478996.98,62779,15.5,73788.3,4.27,-2.51,-3.79,0,*7A
1503478998.17,62780,15.56,73796.5,4.27,-3.91,-4.99,0,*78
1503478999.37,62781,15.56,73808.0,4.23,-3.83,-4.21,0,*7D
1503479000.61,62782,15.5,73802.5,4.25,-6.63,-6.51,0,*76
1503479001.84,62783,15.5,73798.5,4.21,-8.17,-6.23,0,*7B
1503479003.03,62784,15.5,73792.3,4.19,-6.77,-4.41,0,*79
1503479004.22,62785,15.56,73788.0,4.19,-5.35,-2.87,0,*71
1503479005.45,62786,15.5,73790.8,4.21,-4.21,-1.67,0,*70
1503479006.68,62787,15.5,73788.5,4.19,-2.63,-0.85,0,*47
1503479007.91,62788,15.5,73792.0,4.21,-1.43,-0.61,0,*48
1503479009.12,62789,15.5,73794.5,4.21,-0.81,-0.45,0,*70
1503479010.33,62790,15.5,73796.8,4.21,-0.29,-0.11,0,*7B
1503479011.52,62791,15.5,73794.8,4.25,-0.33,-0.29,0,*7E
1503479012.7,62792,15.5,73794.5,4.23,-0.69,-0.69,0,*70
1503479013.9,62793,15.5,73796.8,4.25,-0.69,-0.65,0,*7B
1503479015.1,62794,15.5,73798.5,4.25,-0.29,-0.33,0,*7B
1503479016.3,62795,15.5,73800.0,4.25,-0.07,-0.15,0,*42
1503479017.49,62796,15.5,73802.3,4.25,0.05,-0.07,0,*5D
1503479018.69,62797,15.5,73802.0,4.25,-0.29,-0.41,0,*7D
1503479019.93,62798,15.5,73798.5,4.25,-1.01,-1.17,0,*7B
1503479021.16,62799,15.5,73800.0,4.25,-0.81,-0.93,0,*7E
1503479022.36,62800,15.5,73800.5,4.23,-0.81,-0.97,0,*73
1503479023.56,62801,15.5,73800.3,4.25,-0.53,-0.81,0,*7C
1503479024.79,62802,15.5,73796.5,4.25,-1.01,-1.33,0,*71
1503479026.0,62803,15.5,73804.8,4.23,-1.09,-1.55,0,*7E
1503479027.21,62804,15.5,73806.0,4.23,-0.85,-1.33,0,*4C
1503479028.42,62805,15.5,73806.0,4.23,-1.25,-1.91,0,*7E
1503479029.61,62806,15.5,73800.0,4.23,-2.19,-2.95,0,*76
1503479030.82,62807,15.5,73796.8,4.23,-3.47,-3.75,0,*72
1503479032.06,62808,15.5,73792.5,4.21,-3.07,-2.67,0,*79
1503479033.34,62809,15.5,73792.0,4.21,-1.99,-1.47,0,*7C
1503479034.57,62810,15.56,73800.8,4.21,-1.05,-0.81,0,*4A
1503479035.78,62811,15.56,73802.3,4.19,-0.23,-0.11,0,*7C
1503479036.98,62812,15.5,73796.8,4.25,-0.03,-0.03,0,*71
1503479038.13,62813,15.56,73798.5,4.23,0.01,0.09,0,*7E
1503479039.32,62814,15.5,73792.3,4.25,0.05,0.05,0,*77
1503479040.48,62815,15.5,73794.0,4.27,0.05,-0.03,0,*5F
1503479041.66,62816,15.5,73792.3,4.27,-0.15,-0.15,0,*77
1503479042.84,62817,15.56,73794.8,4.29,-0.29,-0.37,0,*77
1503479044.01,62818,15.56,73794.8,4.29,0.09,0.01,0,*7F
1503479045.22,62819,15.5,73792.8,4.29,0.21,0.13,0,*77
1503479046.44,62820,15.5,73792.8,4.29,0.47,0.37,0,*7B
1503479047.66,62821,15.5,73798.8,4.27,0.21,0.21,0,*73
1503479048.9,62822,15.5,73798.8,4.31,0.63,0.55,0,*72
1503479050.12,62823,15.56,73802.0,4.33,0.63,0.63,0,*74
1503479051.37,62824,15.5,73796.5,4.31,-0.23,-0.27,0,*75
1503479052.54,62825,15.56,73800.5,4.33,0.01,-0.07,0,*59
1503479053.75,62826,15.56,73802.0,4.33,0.51,0.41,0,*70
1503479054.99,62827,15.5,73798.5,4.35,0.71,0.59,0,*7C
1503479056.2,62828,15.5,73800.5,4.39,0.43,0.29,0,*79
1503479057.44,62829,15.5,73802.5,4.39,0.17,-0.23,0,*5E
1503479058.71,62830,15.5,73798.0,4.35,-1.01,-1.39,0,*7B
1503479059.9,62831,15.5,73796.0,4.35,-0.07,-0.53,0,*40
1503479061.09,62832,15.5,73798.0,4.39,0.09,-0.29,0,*61
1503479062.28,62833,15.56,73800.8,4.39,0.05,-0.29,0,*6C
1503479063.5,62834,15.5,73796.8,4.39,0.17,-0.19,0,*5B
1503479064.73,62835,15.5,73800.3,4.39,-0.65,-1.09,0,*42
1503479065.99,62836,15.5,73798.3,4.39,-0.93,-1.39,0,*4B
1503479067.21,62837,15.56,73802.0,4.39,-0.57,-0.93,0,*73
1503479068.42,62838,15.56,73800.0,4.39,-0.41,-0.69,0,*7E
1503479069.62,62839,15.56,73802.5,4.39,-0.57,-0.81,0,*7E
1503479070.83,62840,15.5,73796.0,4.35,-0.45,-0.69,0,*79
1503479072.04,62841,15.5,73794.0,4.39,-0.81,-1.17,0,*44
1503479073.25,62842,15.56,73796.8,4.35,-1.17,-1.33,0,*73
1503479074.46,62843,15.5,73792.0,4.35,-0.69,-0.81,0,*72
1503479075.66,62844,15.56,73790.0,4.35,-0.57,-0.65,0,*72
1503479076.86,62845,15.5,73788.8,4.35,-0.41,-0.53,0,*71
1503479078.09,62846,15.5,73790.3,4.35,-0.23,-0.29,0,*7B
1503479079.34,62847,15.5,73800.5,4.35,-0.93,-1.05,0,*4E
1503479080.55,62848,15.5,73802.5,4.35,-0.41,-0.45,0,*7B
1503479081.79,62849,15.56,73800.8,4.31,-1.09,-1.21,0,*70
1503479083.01,62850,15.5,73792.8,4.33,-2.07,-2.19,0,*7F
1503479084.26,62851,15.5,73790.5,4.33,-1.99,-2.11,0,*72
1503479085.54,62852,15.5,73788.0,4.31,-1.99,-2.07,0,*74
1503479086.73,62853,15.5,73786.0,4.27,-1.75,-1.71,0,*72
1503479087.94,62854,15.5,73788.0,4.29,-1.47,-1.59,0,*70
1503479089.16,62855,15.56,73794.5,4.29,-1.09,-1.17,0,*71
1503479090.35,62856,15.56,73798.0,4.29,-0.41,-0.77,0,*78
1503479091.54,62857,15.5,73796.8,4.29,-1.75,-2.35,0,*7B
1503479092.75,62858,15.5,73798.8,4.27,-1.87,-2.31,0,*73
1503479093.93,62859,15.56,73804.3,4.27,-1.79,-2.79,0,*7F
1503479095.15,62860,15.56,73806.5,4.27,-3.59,-4.57,0,*7F
1503479096.39,62861,15.56,73800.0,4.29,-4.77,-5.23,0,*79
1503479097.63,62862,15.5,73798.8,4.27,-5.19,-5.27,0,*79
1503479098.85,62863,15.5,73796.3,4.29,-4.89,-4.05,0,*7F
1503479100.03,62864,15.56,73798.5,4.27,-4.57,-3.79,0,*79
1503479101.22,62865,15.5,73794.5,4.27,-5.43,-4.65,0,*76
1503479102.39,62866,15.56,73796.8,4.27,-4.49,-3.95,0,*76
1503479103.62,62867,15.5,73792.8,4.27,-3.51,-3.71,0,*73
1503479104.83,62868,15.56,73796.8,4.29,-3.47,-3.23,0,*72
1503479106.06,62869,15.56,73796.5,4.29,-2.63,-2.23,0,*75
1503479107.28,62870,15.5,73796.3,4.29,-2.11,-1.75,0,*78
1503479108.5,62871,15.56,73802.0,4.29,-1.47,-1.25,0,*7C
1503479109.77,62872,15.56,73796.3,4.31,-1.47,-1.35,0,*77
1503479111.0,62873,15.56,73798.3,4.33,-0.97,-0.85,0,*72
1503479112.19,62874,15.5,73798.3,4.33,-0.19,-0.19,0,*76
1503479113.39,62875,15.5,73798.5,4.35,-0.07,-0.15,0,*42
1503479114.61,62876,15.56,73798.3,4.41,0.55,0.33,0,*71
1503479115.8,62877,15.5,73798.5,4.41,0.33,-0.41,0,*58
1503479117.03,62878,15.5,73800.5,4.41,0.21,-1.01,0,*61
1503479118.27,62879,15.5,73798.3,4.41,-1.99,-2.67,0,*7C
1503479119.5,62880,15.56,73802.5,4.41,-0.97,-1.13,0,*45
1503479120.71,62881,15.5,73802.3,4.43,0.17,0.01,0,*4C
1503479121.94,62882,15.5,73804.0,4.43,0.37,0.13,0,*7E
1503479123.15,62883,15.56,73806.8,4.43,0.13,-0.07,0,*61
1503479124.38,62884,15.56,73800.3,4.43,-0.97,-1.25,0,*46
1503479125.58,62885,15.5,73800.5,4.41,-1.17,-1.29,0,*70
1503479126.76,62886,15.5,73802.3,4.41,-0.41,-0.53,0,*7D
1503479127.99,62887,15.56,73804.0,4.43,-0.11,-0.23,0,*7C
1503479129.19,62888,15.56,73802.0,4.43,-0.33,-0.37,0,*76
1503479130.37,62889,15.56,73802.8,4.41,-0.37,-0.53,0,*73
1503479131.61,62890,15.56,73794.3,4.41,-1.35,-1.39,0,*75
1503479132.88,62891,15.56,73792.0,4.39,-1.01,-1.05,0,*73
1503479134.08,62892,15.56,73788.0,4.39,-0.69,-0.77,0,*7B
1503479135.28,62893,15.56,73792.3,4.39,-0.57,-0.65,0,*74
1503479136.48,62894,15.56,73798.8,4.39,-0.33,-0.45,0,*73
1503479137.71,62895,15.56,73796.3,4.39,-0.15,-0.23,0,*76
1503479138.91,62896,15.56,73800.5,4.35,-0.69,-0.81,0,*7A
1503479140.12,62897,15.56,73804.0,4.33,-0.81,-0.93,0,*78
1503479141.3,62898,15.5,73798.8,4.33,-0.61,-0.73,0,*77
1503479142.47,62899,15.56,73802.8,4.33,-0.49,-0.61,0,*7F
1503479143.69,62900,15.56,73802.3,4.31,-0.81,-0.73,0,*7B
1503479144.9,62901,15.56,73798.5,4.31,-0.69,-0.81,0,*71
1503479146.1,62902,15.5,73788.8,4.29,-1.17,-1.25,0,*7C
1503479147.32,62903,15.56,73788.0,4.29,-1.63,-1.99,0,*79
1503479148.53,62904,15.56,73794.8,4.27,-1.43,-1.51,0,*76
1503479149.77,62905,15.56,73794.8,4.27,-1.39,-1.43,0,*79
1503479150.98,62906,15.56,73798.3,4.27,-1.13,-1.21,0,*76
1503479152.21,62907,15.56,73794.8,4.25,-1.67,-1.87,0,*7A
1503479153.43,62908,15.5,73794.0,4.23,-1.09,-1.21,0,*77
1503479154.64,62909,15.56,73794.3,4.23,-1.09,-1.21,0,*76
1503479155.88,62910,15.56,73790.5,4.19,-1.01,-1.09,0,*75
1503479157.13,62911,15.56,73788.3,4.21,-0.97,-1.09,0,*41
1503479158.36,62912,15.5,73786.3,4.21,-0.81,-0.85,0,*70
1503479159.58,62913,15.56,73794.5,4.19,-1.13,-1.21,0,*7F
1503479160.79,62914,15.56,73792.8,4.19,-1.95,-2.35,0,*70
1503479162.03,62915,15.56,73796.5,4.17,-2.23,-2.63,0,*72
1503479163.25,62916,15.56,73806.8,4.13,-2.27,-2.95,0,*78
1503479164.46,62917,15.56,73806.3,4.11,-2.11,-3.19,0,*7B
1503479165.68,62918,15.56,73802.5,4.11,-2.55,-4.21,0,*78
1503479166.93,62919,15.56,73806.8,4.09,-2.99,-5.23,0,*73
1503479168.14,62920,15.56,73806.3,4.05,-3.23,-6.09,0,*7E
1503479169.37,62921,15.56,73800.5,4.05,-3.87,-6.89,0,*79
1503479170.58,62922,15.56,73806.0,4.03,-4.99,-7.43,0,*73
1503479171.84,62923,15.56,73802.3,4.01,-5.11,-6.97,0,*79
1503479173.08,62924,15.56,73804.0,4.01,-4.45,-5.69,0,*7C
1503479174.28,62925,15.56,73806.3,3.99,-4.21,-5.55,0,*76
1503479175.52,62926,15.56,73800.8,3.97,-4.65,-5.73,0,*7F
1503479176.77,62927,15.56,73802.8,3.97,-4.65,-5.85,0,*77
1503479178.01,62928,15.56,73802.0,3.93,-3.67,-5.23,0,*75
1503479179.25,62929,15.56,73804.5,3.95,-3.23,-5.31,0,*71
1503479180.51,62930,15.56,73806.5,3.95,-3.59,-5.15,0,*72
1503479181.75,62931,15.56,73800.3,3.95,-3.47,-4.05,0,*7C
1503479182.99,62932,15.56,73798.5,3.95,-3.47,-3.27,0,*78
1503479184.23,62933,15.56,73796.5,3.95,-1.99,-1.59,0,*73
1503479185.47,62934,15.56,73792.0,3.97,-1.01,-0.49,0,*47
1503479186.68,62935,15.56,73788.5,3.99,-0.19,0.21,0,*53
1503479187.91,62936,15.56,73788.5,3.99,0.91,1.25,0,*48
1503479189.11,62937,15.56,73792.8,4.03,1.75,1.93,0,*7B
1503479190.31,62938,15.56,73788.3,4.07,0.97,0.87,0,*79
1503479191.52,62939,15.56,73788.0,4.09,-0.45,-0.49,0,*7B
1503479192.71,62940,15.56,73792.0,4.09,0.01,-0.07,0,*52
1503479193.9,62941,15.56,73800.5,4.11,0.17,-0.07,0,*6D
1503479195.08,62942,15.56,73792.3,4.11,-0.33,-0.41,0,*77
1503479196.29,62943,15.56,73792.8,4.09,-0.61,-0.73,0,*79
1503479197.49,62944,15.56,73802.8,4.09,-0.45,-0.61,0,*7B
1503479198.7,62945,15.56,73806.0,4.09,-0.57,-0.81,0,*77
1503479199.94,62946,15.56,73804.3,4.09,-1.59,-1.83,0,*78
1503479201.16,62947,15.56,73802.3,4.11,-1.21,-1.47,0,*77
1503479202.37,62948,15.56,73808.0,4.11,-0.93,-1.33,0,*43
1503479203.56,62949,15.56,73806.8,4.11,-1.21,-2.31,0,*7B
1503479204.8,62950,15.5,73800.8,4.09,-1.43,-2.79,0,*72
1503479206.04,62951,15.56,73804.3,4.09,-1.67,-2.59,0,*77
1503479207.32,62952,15.56,73804.3,4.09,-1.83,-2.67,0,*73
1503479208.5,62953,15.56,73804.5,4.11,-1.59,-2.23,0,*7C
1503479209.7,62954,15.56,73806.0,4.11,-1.33,-1.79,0,*7B
1503479210.93,62955,15.56,73804.3,4.11,-0.93,-1.35,0,*49
1503479212.17,62956,15.56,73804.0,4.09,-0.85,-1.21,0,*41
1503479213.39,62957,15.56,73806.3,4.09,-0.61,-0.93,0,*72
1503479214.58,62958,15.56,73810.5,4.11,-0.41,-0.45,0,*7D
1503479215.78,62959,15.56,73804.3,4.13,-0.03,-0.03,0,*7A
1503479217.03,62960,15.56,73808.0,4.13,0.55,0.55,0,*70
1503479218.27,62961,15.5,73806.3,4.17,0.47,0.47,0,*75
1503479219.49,62962,15.56,73804.0,4.17,0.95,0.97,0,*74
1503479220.69,62963,15.56,73800.8,4.21,1.01,1.01,0,*72
1503479221.92,62964,15.5,73800.0,4.21,0.67,0.67,0,*75
1503479223.15,62965,15.56,73798.0,4.21,0.37,0.41,0,*75
1503479224.31,62966,15.56,73800.0,4.23,0.01,-0.07,0,*5E
1503479225.52,62967,15.5,73802.3,4.25,0.33,0.43,0,*75
1503479226.75,62968,15.56,73806.5,4.25,0.67,0.67,0,*7D
1503479227.98,62969,15.56,73800.8,4.25,0.33,0.33,0,*7C
1503479229.17,62970,15.56,73802.8,4.25,0.05,-0.03,0,*5F
1503479230.37,62971,15.56,73802.3,4.25,-0.57,-0.77,0,*77
1503479231.58,62972,15.56,73800.8,4.23,-1.35,-1.55,0,*76
1503479232.8,62973,15.5,73796.8,4.23,-1.33,-1.35,0,*77
1503479233.98,62974,15.56,73796.8,4.23,-0.33,-0.37,0,*72
1503479235.15,62975,15.56,73798.0,4.23,-0.61,-0.81,0,*79
1503479236.32,62976,15.56,73800.5,4.23,-0.61,-0.73,0,*77
1503479237.5,62977,15.56,73802.0,4.23,-0.45,-0.57,0,*76
1503479238.71,62978,15.56,73798.8,4.21,-0.19,-0.37,0,*74
1503479239.92,62979,15.56,73798.5,4.21,-0.19,-0.33,0,*71
1503479241.13,62980,15.56,73800.8,4.21,-0.37,-0.69,0,*74
1503479242.35,62981,15.56,73800.0,4.21,-0.49,-0.85,0,*7E
1503479243.58,62982,15.56,73798.3,4.19,-0.85,-1.13,0,*48
1503479244.81,62983,15.5,73796.3,4.19,-1.35,-1.83,0,*7A
1503479246.0,62984,15.56,73798.8,4.19,-1.59,-2.15,0,*7B
1503479247.2,62985,15.56,73796.3,4.19,-1.51,-1.95,0,*79
1503479248.47,62986,15.56,73794.3,4.17,-2.11,-2.59,0,*70
1503479249.71,62987,15.56,73788.0,4.13,-2.63,-2.79,0,*72
1503479250.89,62988,15.5,73786.0,4.11,-2.91,-3.11,0,*7D
1503479252.16,62989,15.56,73792.3,4.09,-1.91,-2.11,0,*77
1503479253.35,62990,15.56,73802.5,4.07,-1.51,-1.75,0,*7C
1503479254.56,62991,15.56,73802.0,4.07,-1.51,-1.83,0,*74
1503479255.77,62992,15.5,73796.5,4.07,-1.63,-1.95,0,*71
1503479256.99,62993,15.56,73800.5,4.07,-1.21,-1.35,0,*7C
1503479258.23,62994,15.56,73800.8,4.07,-1.39,-1.39,0,*7E
1503479259.42,62995,15.56,73798.5,4.07,-0.73,-0.65,0,*78
1503479260.6,62996,15.56,73802.0,4.07,-0.53,-0.49,0,*77
1503479261.84,62997,15.56,73802.8,4.09,-0.19,-0.23,0,*7A
1503479263.07,62998,15.56,73802.0,4.09,0.13,0.17,0,*78
1503479264.28,62999,15.56,73804.3,4.11,0.33,0.17,0,*72
1503479265.47,63000,15.56,73804.3,4.13,0.05,-0.29,0,*6D
1503479266.7,63001,15.5,73804.3,4.17,0.25,-0.11,0,*51
1503479267.92,63002,15.5,73804.3,4.17,-0.11,-0.33,0,*78
1503479269.13,63003,15.56,73808.3,4.17,-0.11,-0.33,0,*79
1503479270.31,63004,15.5,73800.5,4.19,-0.03,-0.15,0,*47
1503479271.51,63005,15.5,73804.3,4.19,-0.77,-0.89,0,*70
1503479272.73,63006,15.56,73800.8,4.19,-0.23,-0.27,0,*76
1503479273.93,63007,15.56,73800.3,4.21,-0.49,-0.61,0,*72
1503479275.14,63008,15.5,73798.5,4.21,-0.45,-0.49,0,*7B
1503479276.35,63009,15.56,73800.5,4.21,-0.29,-0.37,0,*79
1503479277.56,63010,15.56,73798.3,4.21,-0.19,-0.19,0,*7E
1503479278.76,63011,15.5,73794.3,4.21,-0.37,-0.37,0,*7F
1503479279.97,63012,15.56,73806.0,4.21,-0.49,-0.69,0,*7E
1503479281.14,63013,15.56,73808.3,4.19,-0.45,-0.57,0,*75
1503479282.34,63014,15.56,73812.3,4.21,0.05,-0.07,0,*55
1503479283.52,63015,15.5,73804.3,4.19,-0.65,-0.77,0,*73
1503479284.71,63016,15.56,73800.0,4.19,-1.71,-1.75,0,*77
1503479285.92,63017,15.5,73796.8,4.19,-1.35,-1.25,0,*73
1503479287.09,63018,15.56,73798.3,4.19,-0.61,-0.53,0,*7C
1503479288.27,63019,15.56,73798.3,4.19,-0.49,-0.41,0,*74
1503479289.46,63020,15.56,73800.8,4.19,-0.41,-0.37,0,*77
1503479290.64,63021,15.5,73794.5,4.19,-0.41,-0.33,0,*72
1503479291.83,63022,15.56,73800.5,4.19,-0.11,-0.15,0,*70
1503479293.01,63023,15.56,73804.3,4.19,0.13,0.09,0,*4E
1503479294.25,63024,15.56,73806.5,4.21,0.41,0.25,0,*7B
1503479295.48,63025,15.5,73800.5,4.21,0.25,0.17,0,*79
1503479296.72,63026,15.56,73804.0,4.21,0.29,0.25,0,*77
1503479297.9,63027,15.56,73804.3,4.23,0.17,0.01,0,*4F
1503479299.08,63028,15.56,73808.0,4.23,0.05,-0.11,0,*6F
1503479300.28,63029,15.5,73804.0,4.25,-0.41,-0.57,0,*77
1503479301.46,63030,15.56,73808.3,4.23,-0.57,-0.69,0,*73
1503479302.64,63031,15.56,73808.8,4.23,-0.69,-0.81,0,*79
1503479303.84,63032,15.56,73806.8,4.23,-0.85,-1.17,0,*46
1503479305.06,63033,15.56,73804.5,4.23,-1.05,-1.21,0,*7B
1503479306.31,63034,15.56,73808.5,4.19,-1.05,-1.39,0,*7C
1503479307.5,63035,15.56,73808.8,4.19,-1.29,-1.75,0,*7B
1503479308.68,63036,15.56,73808.3,4.19,-1.51,-2.39,0,*7C
1503479309.92,63037,15.5,73806.5,4.17,-1.59,-2.63,0,*74
1503479311.13,63038,15.5,73804.8,4.13,-2.27,-3.19,0,*79
1503479312.36,63039,15.56,73810.3,4.13,-2.67,-3.39,0,*7E
1503479313.61,63040,15.56,73810.5,4.09,-3.59,-4.13,0,*78
1503479314.85,63041,15.56,73808.5,4.09,-2.99,-3.55,0,*71
1503479316.06,63042,15.56,73810.3,4.09,-2.31,-2.79,0,*7F
1503479317.33,63043,15.56,73814.0,4.05,-1.87,-2.59,0,*7E
1503479318.54,63044,15.56,73814.0,4.05,-2.35,-3.11,0,*7E
1503479319.81,63045,15.56,73806.8,4.05,-5.81,-6.97,0,*7C